ATLAS CENTAUR 2 1 00694U 63047A 26126.58074211 .00002870 00000+0 33598-3 0 9991 2 00694 30.3563 232.0505 0546574 230.6229 124.4719 14.12371006139818 THOR AGENA D R/B 1 00733U 64002A 26126.92201198 .00000156 00000+0 72582-4 0 9993 2 00733 99.1177 143.4252 0033993 89.1508 271.3570 14.34048014246644 SL-3 R/B 1 00877U 64053B 26126.38110685 .00000136 00000+0 50579-4 0 9998 2 00877 65.0755 162.0906 0081265 274.1540 85.0275 14.61405365275221 SL-8 R/B 1 02802U 67045B 26126.77326115 .00000296 00000+0 89565-4 0 9996 2 02802 74.0116 239.6047 0064995 233.5890 125.9264 14.45662532 97415 SL-8 R/B 1 03230U 68040B 26126.60126363 .00002902 00000+0 21388-3 0 9997 2 03230 74.0306 195.3236 0024713 356.6132 3.4885 15.03618824 98713 OAO 2 1 03597U 68110A 26126.86997515 .00000196 00000+0 57829-4 0 9997 2 03597 34.9942 300.3786 0006191 300.5335 59.4744 14.47336920 27539 ISIS 1 1 03669U 69009A 26126.50789632 .00000109 00000+0 76808-4 0 9997 2 03669 88.4429 148.9812 1706564 332.4743 19.5125 11.30426923355062 SERT 2 1 04327U 70009A 26126.87286920 .00000010 00000+0 70004-4 0 9996 2 04327 99.2826 66.8071 0005327 26.3300 42.5736 13.58736487787790 SL-3 R/B 1 05118U 71028B 26126.88871497 .00036886 00000+0 35540-3 0 9992 2 05118 81.2339 339.8780 0015423 74.7572 285.5388 15.66184479997766 ASTEX 1 1 05560U 71089A 26126.68994109 .00000403 00000+0 10264-3 0 9996 2 05560 92.7032 170.4865 0013375 244.6832 115.2989 14.50820836870715 SL-8 R/B 1 05730U 71119B 26126.94009951 .00010887 00000+0 56128-3 0 9996 2 05730 73.8871 66.7448 0544786 21.1185 341.1540 14.38944912663860 OAO 3 (COPERNICUS) 1 06153U 72065A 26126.94910700 .00000278 00000+0 61216-4 0 9998 2 06153 35.0069 325.3751 0007391 276.5527 233.0749 14.60038941854719 ATLAS CENTAUR R/B 1 06155U 72065B 26126.93258674 .00001241 00000+0 17156-3 0 9998 2 06155 35.0026 324.3839 0032959 141.5902 218.7153 14.77841529849889 SL-8 R/B 1 08459U 75112B 26126.86265977 .00000169 00000+0 64120-4 0 9991 2 08459 74.0603 271.8951 0015869 344.9907 15.0774 14.38229811640234 SL-3 R/B 1 10114U 77057B 26126.96043051 .00010162 00000+0 20279-3 0 9990 2 10114 97.5831 301.5381 0008252 76.9967 283.2203 15.47021908677337 SEASAT 1 1 10967U 78064A 26126.94563780 .00000294 00000+0 12053-3 0 9995 2 10967 108.0105 247.7301 0002702 254.4585 105.6263 14.46210234514930 SL-14 R/B 1 11267U 79011B 26126.99691589 .00000492 00000+0 46011-4 0 9998 2 11267 82.5262 41.2383 0014919 218.3901 141.6258 14.91978554537479 SL-8 R/B 1 11574U 79089B 26126.93735167 .00000205 00000+0 69902-4 0 9995 2 11574 74.0697 343.2215 0015256 143.3792 216.8411 14.42384881444504 SL-14 R/B 1 11672U 80005B 26126.77989652 .00000557 00000+0 53733-4 0 9991 2 11672 82.5142 252.1147 0014942 334.8227 25.2262 14.90994149485143 SL-8 R/B 1 12139U 81003B 26126.83431766 .00010251 00000+0 25564-3 0 9996 2 12139 82.9402 236.1579 0253450 336.3488 22.6249 15.13177724323461 SL-3 R/B 1 12465U 81046B 26126.90061214 .00009663 00000+0 21433-3 0 9996 2 12465 81.2317 219.7665 0018983 174.2583 185.8882 15.43388210447401 SL-3 R/B 1 12904U 81103B 26126.90125406 .00003300 00000+0 14328-3 0 9999 2 12904 81.1568 145.1234 0014411 91.4170 268.8713 15.21946439982086 SL-3 R/B 1 13068U 82013B 26126.95315373 .00003713 00000+0 15818-3 0 9994 2 13068 81.1729 92.4423 0021617 347.0691 12.9983 15.22504205413218 SL-3 R/B 1 13154U 82039B 26126.89542837 .00001521 00000+0 90340-4 0 9997 2 13154 81.1441 148.8040 0029580 126.6990 233.6960 15.10340758390428 SL-3 R/B 1 13403U 82079B 26126.86103955 .00004797 00000+0 18736-3 0 9995 2 13403 81.1439 124.3542 0023227 332.1584 27.8404 15.25430280386565 SL-14 R/B 1 13553U 82092B 26126.92934616 .00000445 00000+0 47033-4 0 9998 2 13553 82.5664 86.9032 0021892 106.6673 312.0307 14.86715674337580 SL-3 R/B 1 13819U 83010B 26126.89976354 .00011944 00000+0 22629-3 0 9994 2 13819 81.1011 290.7685 0015650 201.7422 158.3161 15.48072320366943 SL-3 R/B 1 14208U 83075B 26126.94090277 .00009342 00000+0 23660-3 0 9990 2 14208 97.6122 133.7844 0021613 26.4510 333.7833 15.39726962339112 COSMOS 1536 1 14699U 84013A 26126.81955553 .00005687 00000+0 22849-3 0 9996 2 14699 82.5462 50.0254 0016240 79.4120 280.8946 15.24609038281477 SL-14 R/B 1 14820U 84027B 26126.46760941 .00000379 00000+0 40453-4 0 9998 2 14820 82.5435 190.8374 0019040 138.5866 221.6798 14.86031088256217 SL-8 R/B 1 15483U 85006B 26126.32901456 .00000223 00000+0 82565-4 0 9993 2 15483 74.0440 155.0902 0017349 52.9619 318.2405 14.37817343162317 SL-12 R/B(2) 1 15772U 85042D 26126.94846618 .00000095 00000+0 64297-4 0 9999 2 15772 71.1083 324.6454 0033978 32.0708 71.7621 14.21997913122670 SL-14 R/B 1 15945U 85069B 26126.97315396 .00000351 00000+0 36850-4 0 9996 2 15945 82.5259 330.1353 0018833 4.1519 355.9850 14.86485715181495 SL-16 R/B 1 16182U 85097B 26126.96452380 .00000260 00000+0 15405-3 0 9996 2 16182 71.0048 17.8663 0007433 184.3935 262.5185 14.16607130 95485 SL-14 R/B 1 16496U 86006B 26126.46376786 .00000591 00000+0 59663-4 0 9997 2 16496 82.5291 205.3706 0077932 81.4309 279.5729 14.86905850157797 COSMOS 1743 1 16719U 86034A 26126.39703821 .00037276 00000+0 39966-3 0 9995 2 16719 82.5307 13.0399 0006839 79.9560 280.2470 15.63614966189253 SL-14 R/B 1 16792U 86046B 26126.79888163 .00000438 00000+0 47563-4 0 9999 2 16792 82.4845 25.2812 0024105 39.0367 321.2583 14.85644377135033 SL-14 R/B 1 16882U 86055B 26126.92790240 .00000433 00000+0 46971-4 0 9999 2 16882 82.5203 71.9165 0019943 135.9717 289.2058 14.85692718128012 AJISAI (EGS) 1 16908U 86061A 26126.95412345 -.00000077 00000+0 14312-3 0 9993 2 16908 50.0093 274.1867 0011429 76.1157 65.4150 12.44516128475250 SL-14 R/B 1 17567U 87024B 26126.81118684 .00000448 00000+0 48056-4 0 9993 2 17567 82.5306 38.1358 0019743 69.9119 290.4220 14.86185437 96763 COSMOS 1833 1 17589U 87027A 26126.69591146 -.00000073 00000+0 -13608-4 0 9995 2 17589 70.9153 204.0873 0022358 123.7487 236.5768 14.13031654 18513 SL-16 R/B 1 17590U 87027B 26126.57143410 -.00000266 00000+0 -10811-3 0 9997 2 17590 71.0009 154.5243 0004253 5.4794 354.6376 14.17171162 23547 SL-14 R/B 1 17912U 87038B 26126.83591030 .00000384 00000+0 41735-4 0 9990 2 17912 82.5020 242.0181 0018527 336.6767 23.3607 14.85419554 87864 COSMOS 1844 1 17973U 87041A 26126.81018203 -.00000022 00000+0 13901-4 0 9999 2 17973 70.8980 271.5819 0032765 293.4335 66.3343 14.14557044 11806 SL-14 R/B 1 18153U 87055B 26126.93737639 .00000437 00000+0 47415-4 0 9995 2 18153 82.4969 294.1196 0020691 176.8230 183.3121 14.85678938 78581 COSMOS 1867 1 18187U 87060A 26126.35632052 -.00000060 00000+0 15035-4 0 9993 2 18187 65.0088 145.2079 0015653 281.3405 78.5920 14.31511073 28192 SL-14 R/B 1 18749U 88001B 26126.59988399 .00000379 00000+0 40837-4 0 9997 2 18749 82.5111 140.9002 0019263 50.3517 309.9395 14.85578605 50627 COSMOS 1933 1 18958U 88020A 26126.59083310 .00003812 00000+0 18355-3 0 9993 2 18958 82.5142 193.6162 0004066 22.9969 337.1446 15.18471442 59016 SL-3 R/B 1 19046U 88032B 26126.91915319 .00004372 00000+0 20142-3 0 9993 2 19046 97.5247 110.0184 0026677 34.6437 325.6529 15.20506269 60954 SL-16 R/B 1 19120U 88039B 26126.90045058 .00000060 00000+0 51324-4 0 9993 2 19120 71.0143 305.4607 0023948 252.3463 107.5047 14.19624837966647 COSMOS 1953 1 19210U 88050A 26126.93759443 .00006934 00000+0 24191-3 0 9996 2 19210 82.5062 99.6066 0008625 279.3884 80.6381 15.29398853 46689 SL-8 R/B 1 19257U 88053B 26126.99520434 .00000196 00000+0 71989-4 0 9994 2 19257 74.0491 4.9913 0020159 173.9946 289.0103 14.38947476984987 COSMOS 1975 1 19573U 88093A 26126.86022824 .00005402 00000+0 19151-3 0 9992 2 19573 82.5205 59.2475 0010312 335.3984 24.6763 15.28816823 28296 SL-14 R/B 1 19574U 88093B 26126.40267530 .00000362 00000+0 38852-4 0 9998 2 19574 82.5317 347.8790 0019976 203.3345 329.9710 14.85710992 9583 SL-16 R/B 1 19650U 88102B 26126.96664698 .00000195 00000+0 12277-3 0 9997 2 19650 71.0018 28.8738 0016413 280.2799 79.6473 14.16162097935143 INTERCOSMOS 24 1 20261U 89080A 26126.95042180 .00000292 00000+0 78729-4 0 9991 2 20261 82.6059 66.4669 1187743 157.5445 208.2449 12.59610064674136 SL-14 R/B 1 20262U 89080C 26126.32390414 .00000394 00000+0 11031-3 0 9994 2 20262 82.5895 136.1965 1230840 53.0914 317.6705 12.50536708667355 DELTA 1 R/B 1 20323U 89089B 26126.28340874 .00000247 00000+0 70029-4 0 9991 2 20323 97.0655 324.5415 0067592 301.2845 58.1745 14.50703693904089 ARIANE 40 R/B 1 20443U 90005H 26126.76833482 .00000236 00000+0 88594-4 0 9993 2 20443 98.2983 185.6668 0010706 36.8089 323.3833 14.39905699901169 DELTA 2 R/B(1) 1 20453U 90008B 26126.49219040 .00059239 00000+0 54203-3 0 9991 2 20453 35.6001 153.3378 0070852 82.1670 278.7105 15.63378579935165 COSMOS 2058 1 20465U 90010A 26126.83630722 .00003315 00000+0 19243-3 0 9998 2 20465 82.4675 350.1327 0011090 126.3983 233.8272 15.11769311951024 SL-14 R/B 1 20466U 90010B 26126.95979640 .00000360 00000+0 40572-4 0 9994 2 20466 82.5044 212.6574 0021312 106.8633 253.4921 14.83621386937126 SL-14 R/B 1 20511U 90018B 26126.22337694 .00000298 00000+0 34474-4 0 9994 2 20511 82.5218 169.3314 0014701 261.6659 98.2889 14.82191111931109 HST 1 20580U 90037B 26126.80281318 .00006107 00000+0 19475-3 0 9994 2 20580 28.4762 3.3129 0002116 48.0743 312.0033 15.30306882782229 SL-16 R/B 1 20625U 90046B 26126.59368227 .00000241 00000+0 14874-3 0 9996 2 20625 70.9987 176.3031 0015656 222.9834 137.0066 14.15021653856584 COSMOS 2084 1 20663U 90055A 26126.42991912 .00001825 00000+0 13853-3 0 9998 2 20663 62.7881 138.5941 0008202 218.7452 141.3061 15.05948351945019 SL-6 R/B(2) 1 20666U 90055D 26126.95810829 .00002013 00000+0 15841-3 0 9995 2 20666 62.7838 55.6567 0034118 358.8941 1.2077 15.03857055946954 SL-8 R/B 1 20775U 90078B 26126.46794440 .00022202 00000+0 64079-3 0 9996 2 20775 82.9039 199.2895 0355258 178.8394 181.3743 14.90906278817903 SL-8 R/B 1 21088U 91006B 26126.95140488 .00000050 00000+0 35163-4 0 9997 2 21088 82.9395 126.7129 0021243 229.5975 192.0402 13.77506450772097 OKEAN-3 1 21397U 91039A 26126.92277970 .00002470 00000+0 17115-3 0 9994 2 21397 82.5154 280.3925 0015325 130.0519 230.2055 15.05131323873798 COSMOS 2151 1 21422U 91042A 26126.91095392 .00001289 00000+0 10058-3 0 9998 2 21422 82.4988 27.5091 0011155 217.0680 142.9775 15.00330130871921 SL-14 R/B 1 21423U 91042B 26126.42373748 .00000317 00000+0 37016-4 0 9994 2 21423 82.4932 166.0607 0018260 54.7697 305.5223 14.81876936861629 ERS-1 1 21574U 91050A 26126.94656309 .00000256 00000+0 96499-4 0 9996 2 21574 98.7824 146.6332 0032479 31.4522 328.8599 14.39491390824119 ARIANE 40 R/B 1 21610U 91050F 26126.37370017 .00000271 00000+0 93401-4 0 9990 2 21610 98.1908 176.4126 0001839 247.4194 112.6802 14.42932278827319 INTERCOSMOS 25 1 21819U 91086A 26126.84642684 .00000503 00000+0 96446-4 0 9994 2 21819 82.6010 274.8281 1485486 351.5800 6.2632 12.12147512503733 SL-8 R/B 1 21876U 92008B 26126.83465970 .00000085 00000+0 72158-4 0 9991 2 21876 82.9287 224.5293 0033865 334.2981 146.0844 13.75972075717417 SL-8 R/B 1 21938U 92020B 26126.95665683 -.00000018 00000+0 -35119-4 0 9994 2 21938 82.9271 110.4827 0030070 133.1145 289.5860 13.75547616709149 USA 81 1 21949U 92023A 26126.91976656 .00000177 00000+0 58296-4 0 9995 2 21949 85.0047 97.8243 0001736 111.4115 248.7263 14.32386258103126 COSMOS 2219 1 22219U 92076A 26126.80912241 .00000131 00000+0 93557-4 0 9991 2 22219 71.0613 256.5688 0016090 114.0159 246.2650 14.14102990726598 SL-16 R/B 1 22220U 92076B 26126.94176060 .00000235 00000+0 14094-3 0 9992 2 22220 71.0005 65.6653 0012765 356.1372 67.9947 14.16868594730084 COSMOS 2221 1 22236U 92080A 26126.74939727 .00001709 00000+0 14822-3 0 9995 2 22236 82.5055 223.4568 0014063 3.9058 356.2271 14.96429540789476 SL-16 R/B 1 22285U 92093B 26126.90078358 -.00000091 00000+0 -22330-4 0 9994 2 22285 71.0224 242.0611 0006030 236.6867 123.3679 14.15461765721393 COSMOS 2228 1 22286U 92094A 26126.86024640 .00001479 00000+0 12431-3 0 9995 2 22286 82.5190 181.6220 0019526 105.4966 254.8415 14.97450420784768 SL-16 R/B 1 22566U 93016B 26126.94714327 .00000050 00000+0 50006-4 0 9993 2 22566 71.0045 92.8239 0012175 240.1977 119.7935 14.15307526710411 COSMOS 2242 1 22626U 93024A 26126.73434287 .00001733 00000+0 14872-3 0 9999 2 22626 82.5209 211.1932 0017750 109.1594 251.1552 14.96786588789078 SL-16 R/B 1 22803U 93059B 26126.91796037 -.00000085 00000+0 -18566-4 0 9994 2 22803 70.9907 248.3308 0015248 126.1158 234.1380 14.17242753687784 ARIANE 40 R/B 1 22830U 93061H 26126.79700082 .00000203 00000+0 90003-4 0 9994 2 22830 98.4832 194.5100 0011935 110.7724 249.4740 14.32890013702428 COSMOS 2278 1 23087U 94023A 26126.94460271 -.00000123 00000+0 -39474-4 0 9996 2 23087 71.0552 53.2152 0011109 293.6480 66.3476 14.14389134653042 SL-16 R/B 1 23088U 94023B 26126.96486507 .00000301 00000+0 17976-3 0 9997 2 23088 70.9997 308.5035 0004701 230.7127 129.3579 14.15020029654333 SL-16 R/B 1 23343U 94074B 26126.95948193 .00000364 00000+0 55368-4 0 9997 2 23343 97.7022 155.3930 0007492 41.9609 21.1875 14.79467164695868 SL-16 R/B 1 23405U 94077B 26126.57039832 -.00000247 00000+0 -10164-3 0 9994 2 23405 70.9832 230.7150 0000604 16.9954 343.1189 14.15570737624424 ARIANE 40+ R/B 1 23561U 95021B 26126.78514190 .00000256 00000+0 95447-4 0 9991 2 23561 98.4421 197.4550 0006040 337.8261 134.0616 14.39810461627607 SL-16 R/B 1 23705U 95058B 26126.93353866 -.00000053 00000+0 -25979-5 0 9990 2 23705 71.0218 57.9711 0011543 21.4142 338.7462 14.15501912576095 SL-16 R/B 1 24298U 96051B 26126.95576788 .00000118 00000+0 90767-4 0 9990 2 24298 70.7626 51.9122 0012678 45.5897 314.6258 14.12431422529871 ORBVIEW 2 (SEASTAR) 1 24883U 97037A 26126.96680597 .00000221 00000+0 92998-4 0 9993 2 24883 98.8656 292.8512 0001273 226.8057 133.3021 14.35531969516833 SL-16 R/B 1 25400U 98043G 26126.89677476 .00000048 00000+0 38994-4 0 9994 2 25400 98.8338 80.7077 0009373 200.0137 160.0676 14.26061969447281 SL-16 R/B 1 25407U 98045B 26126.91587864 .00000291 00000+0 17118-3 0 9991 2 25407 71.0119 59.1234 0009455 290.2777 69.7329 14.16199481435349 ISS (ZARYA) 1 25544U 98067A 26126.84466763 .00005913 00000+0 11489-3 0 9994 2 25544 51.6305 144.7453 0007432 30.9733 329.1692 15.49124105565348 CZ-4B R/B 1 25732U 99025C 26126.36393696 .00000048 00000+0 43670-4 0 9991 2 25732 98.6519 169.2477 0037206 177.2560 193.4277 14.18276115396345 OKEAN-O 1 25860U 99039A 26126.91573884 .00000527 00000+0 75857-4 0 9992 2 25860 97.9341 186.1822 0001820 106.7382 253.4030 14.80417558443003 SL-16 R/B 1 25861U 99039B 26126.57092236 .00000503 00000+0 70378-4 0 9999 2 25861 97.9864 185.5472 0016105 71.7266 288.5698 14.81803508445435 DELTA 2 R/B 1 25876U 99041E 26126.55735757 .00000470 00000+0 11465-3 0 9992 2 25876 51.7619 70.0964 0502202 159.0752 203.1555 14.11946051371201 HELIOS 1B 1 25977U 99064A 26126.68683048 .00001453 00000+0 16515-3 0 9991 2 25977 98.1642 30.6229 0000805 134.6222 225.5060 14.87896550693884 TERRA 1 25994U 99068A 26126.93550409 .00000345 00000+0 79343-4 0 9994 2 25994 97.9487 178.1109 0002563 33.1626 69.5357 14.61070186403588 SL-16 R/B 1 26070U 00006B 26126.94641908 -.00000120 00000+0 -36933-4 0 9991 2 26070 71.0034 335.3432 0014252 93.1880 267.0874 14.15834720356809 TITAN 4B R/B 1 26474U 00047B 26126.92808445 .00002531 00000+0 16049-3 0 9994 2 26474 67.9890 236.6846 0043494 329.6204 30.2425 15.09984114401709 ENVISAT 1 27386U 02009A 26126.87083231 .00000101 00000+0 46734-4 0 9995 2 27386 98.3810 79.1175 0001160 90.3799 289.7315 14.39055016267545 IDEFIX & ARIANE 42P R/B 1 27422U 02021B 26126.80827176 .00000246 00000+0 10985-3 0 9995 2 27422 98.5927 64.7443 0012326 21.8788 338.2919 14.31062188252339 AQUA 1 27424U 02022A 26126.92582640 .00000765 00000+0 16202-3 0 9999 2 27424 98.4255 95.3932 0002128 83.9313 340.0655 14.62094317277247 CZ-4B R/B 1 27432U 02024C 26126.80120036 .00000033 00000+0 40076-4 0 9999 2 27432 98.8730 179.8827 0049537 216.9243 256.5065 14.14557593237456 MIDORI II (ADEOS-II) 1 27597U 02056A 26126.90677044 .00000266 00000+0 12227-3 0 9997 2 27597 98.7854 85.8233 0001346 132.2101 227.9194 14.29326130218619 H-2A R/B 1 27601U 02056E 26126.90979392 .00000289 00000+0 11578-3 0 9997 2 27601 98.3288 85.0954 0069998 349.2701 77.0151 14.33801695222450 CZ-4B R/B 1 28059U 03049C 26126.97267372 .00000349 00000+0 91328-4 0 9992 2 28059 98.6899 124.1813 0049126 54.7098 305.8678 14.55070074195072 CZ-2C R/B 1 28222U 04012C 26126.16812072 .00073391 00000+0 55631-3 0 9992 2 28222 97.7111 197.1957 0012312 101.5060 258.7586 15.72048057213281 SL-16 R/B 1 28353U 04021B 26126.93618678 -.00000059 00000+0 -57194-5 0 9999 2 28353 70.9978 110.2588 0006866 297.7329 62.3096 14.14601556131074 CZ-4B R/B 1 28415U 04035C 26126.67587471 .00007045 00000+0 24127-3 0 9998 2 28415 97.3399 160.2309 0033048 121.4010 239.0471 15.29997158188773 CZ-2C R/B 1 28480U 04046B 26126.75281760 .00000160 00000+0 74775-4 0 9999 2 28480 98.1964 38.1173 0139089 343.7105 15.9629 14.27015043116789 ARIANE 5 R/B 1 28499U 04049H 26126.97196948 .00000982 00000+0 11404-3 0 9990 2 28499 98.2700 297.6412 0084451 161.3799 199.0537 14.85380335154441 CZ-2D R/B 1 28738U 05024B 26126.97547455 .00041412 00000+0 41377-3 0 9998 2 28738 97.3530 144.4800 0006059 143.5960 216.5713 15.65487425148887 ALOS (DAICHI) 1 28931U 06002A 26126.84143046 .00001123 00000+0 19570-3 0 9999 2 28931 98.1299 82.5477 0002140 94.0590 266.0860 14.69966593 82028 H-2A R/B 1 28932U 06002B 26126.91683262 .00005982 00000+0 29162-3 0 9992 2 28932 98.2523 279.0423 0051815 44.4564 316.0808 15.17572835103261 RESURS-DK 1 1 29228U 06021A 26126.98267357 .00002096 00000+0 12438-3 0 9993 2 29228 69.9329 86.2004 0004282 332.8484 27.2457 15.13046046 96340 CZ-4B R/B 1 29507U 06046C 26126.58216722 .00004279 00000+0 21402-3 0 9992 2 29507 97.5485 171.3211 0034356 68.2940 292.1945 15.17460107 68827 CZ-2C R/B 1 31114U 07010B 26126.91771501 .00000125 00000+0 76076-4 0 9993 2 31114 98.4051 237.2971 0060038 124.3864 236.3011 14.20266090987982 COSMO-SKYMED 1 1 31598U 07023A 26126.96051138 .00002383 00000+0 21279-3 0 9997 2 31598 97.8879 318.4736 0001758 86.5876 273.5546 14.96914351 23627 COSMOS 2428 1 31792U 07029A 26126.94060710 -.00000220 00000+0 -92135-4 0 9993 2 31792 70.9395 81.0725 0008486 208.9515 151.1137 14.12942115972328 SL-16 R/B 1 31793U 07029B 26126.96423535 .00000122 00000+0 88147-4 0 9991 2 31793 70.9775 49.8841 0002666 269.3092 162.6334 14.14851420973616 KORONAS-FOTON 1 33504U 09003A 26126.95844121 .00008426 00000+0 17853-3 0 9994 2 33504 82.4307 215.2327 0009039 307.1627 52.8795 15.44866626954732 CZ-2C R/B 1 37731U 11030B 26126.90788566 .00000890 00000+0 11796-3 0 9995 2 37731 97.8628 83.0506 0052851 159.3271 268.5083 14.81379345798713 H-2A R/B 1 38341U 12025E 26126.87751520 .00002870 00000+0 26003-3 0 9991 2 38341 98.4816 98.6344 0045579 121.1476 239.4225 14.95503551756916 SHIJIAN-16 (SJ-16) 1 39358U 13057A 26126.94925757 .00002297 00000+0 22594-3 0 9993 2 39358 74.9724 74.7790 0016595 325.9223 34.0899 14.92506516680195 SL-4 R/B 1 39679U 14021B 26126.89593130 .00010025 00000+0 21471-3 0 9992 2 39679 51.6068 52.9047 0092187 315.9042 43.4617 15.41009404665246 ALOS-2 1 39766U 14029A 26126.95073532 .00000308 00000+0 48077-4 0 9998 2 39766 97.9213 224.7036 0001582 90.0098 270.1295 14.79457471645482 YAOGAN-29 1 41038U 15069A 26126.95430477 .00000090 00000+0 17657-4 0 9991 2 41038 98.0055 155.5170 0002386 122.6586 237.4857 14.83049917564511 ASTRO-H (HITOMI) 1 41337U 16012A 26126.92978745 .00002552 00000+0 14605-3 0 9998 2 41337 31.0005 340.6052 0009547 199.0150 161.0132 15.10341936561042 HXMT (HUIYAN) 1 42758U 17034A 26126.95145763 .00004087 00000+0 20564-3 0 9996 2 42758 43.0152 52.5837 0032916 244.7890 114.9544 15.18105807491398 SAOCOM 1A 1 43641U 18076A 26126.48201034 .00000680 00000+0 91944-4 0 9993 2 43641 97.8887 313.8349 0001593 90.4094 269.7301 14.82164916409926 H-2A R/B 1 43682U 18084L 26126.59549656 .00016304 00000+0 36049-3 0 9998 2 43682 98.8633 356.4461 0023990 178.9058 181.2242 15.43643990414702 SAOCOM 1B 1 46265U 20059A 26126.98587751 .00000181 00000+0 29352-4 0 9990 2 46265 97.8888 313.4253 0001541 81.3291 278.8097 14.82156797307381 CSS (TIANHE) 1 48274U 21035A 26126.89526562 .00017607 00000+0 18863-3 0 9995 2 48274 41.4662 213.2545 0005027 345.5436 14.5260 15.63411084286711 COSMOS 2550 1 48865U 21056A 26126.87809478 .00004748 00000+0 14998-3 0 9999 2 48865 67.1427 224.8630 0008512 268.4370 91.5809 15.33843107272380 CZ-2C R/B 1 52794U 22058K 26126.93522663 .00035493 00000+0 44065-3 0 9992 2 52794 50.1879 17.6667 0036963 91.1642 269.3566 15.58788001219206 CZ-2C R/B 1 54039U 22132E 26126.95657226 .00037153 00000+0 34444-3 0 9990 2 54039 97.2935 132.2836 0013952 222.4327 137.5856 15.67274540199482 GSLV R/B 1 54149U 22138AN 26126.34373454 .00002427 00000+0 20744-3 0 9993 2 54149 87.3802 147.0379 0019054 306.3330 53.6143 14.97077489192551 XRISM 1 57800U 23137A 26126.80674452 .00004633 00000+0 25667-3 0 9993 2 57800 31.0023 267.5725 0007757 266.6217 93.3534 15.12125035146598 ACS3 1 59588U 24077B 26126.76389788 .00017575 00000+0 13543-1 0 9999 2 59588 97.1777 54.8351 0044746 340.1503 19.7920 13.92445165102272 HTV-X1 1 66174U 25241A 26126.55045763 .00013090 00000+0 14507-3 0 9992 2 66174 51.6335 150.9491 0007467 31.3509 328.7929 15.63317465 29836 SZ-21 MODULE 1 66515U 25246C 26126.92714127 .00031846 00000+0 22678-3 0 9991 2 66515 41.4722 203.6256 0002580 50.4475 309.6596 15.73136268 27233